Total_Precipitation_Accumulation
0.78 0.69 0.85 0.92 0.83 0.91 1.26 1.17 1.09 0.70 0.59 0.63 0.64 0.67 0.63 0.63 0.61 0.60 0.68 0.75 0.81 0.87 0.87 0.86 0.92 0.94 1.02 1.14 1.21 1.28 1.34 1.35 1.32 1.36 1.38 1.39 1.39 1.40 1.38 1.42 1.45 1.49 1.53 1.51
0.74 0.63 0.74 0.79 0.69 0.70 0.76 0.77 0.77 0.61 0.65 0.59 0.57 0.55 0.54 0.56 0.56 0.58 0.65 0.73 0.76 0.80 0.80 0.81 0.88 0.94 0.96 1.03 1.18 1.21 1.27 1.34 1.30 1.24 1.27 1.37 1.46 1.46 1.45 1.44 1.47 1.50 1.56 1.60
0.89 0.60 0.79 0.97 0.84 0.72 0.70 0.70 0.71 0.81 0.77 0.59 0.57 0.55 0.60 0.59 0.57 0.61 0.63 0.66 0.70 0.75 0.79 0.84 0.88 0.91 0.94 0.98 1.11 1.18 1.23 1.29 1.29 1.28 1.30 1.33 1.42 1.53 1.58 1.56 1.56 1.63 1.70 1.74
1.09 0.84 1.12 0.97 0.61 0.52 0.54 0.61 0.64 0.70 0.65 0.60 0.64 0.61 0.55 0.54 0.54 0.56 0.58 0.61 0.64 0.68 0.73 0.76 0.80 0.85 0.91 0.93 0.99 1.06 1.12 1.22 1.24 1.26 1.37 1.44 1.47 1.51 1.58 1.62 1.67 1.76 1.85 1.86
1.18 0.95 0.74 0.52 0.42 0.52 0.57 0.62 0.55 0.54 0.49 0.44 0.46 0.49 0.48 0.43 0.43 0.51 0.57 0.63 0.66 0.69 0.73 0.73 0.73 0.80 0.88 0.94 0.99 1.02 1.08 1.19 1.27 1.27 1.33 1.43 1.56 1.58 1.60 1.64 1.68 1.70 1.71 1.66
1.22 1.07 0.71 0.55 0.34 0.34 0.48 0.68 0.44 0.44 0.45 0.43 0.43 0.52 0.53 0.46 0.44 0.43 0.44 0.53 0.62 0.65 0.68 0.70 0.73 0.79 0.89 0.96 1.05 1.16 1.21 1.28 1.36 1.41 1.44 1.43 1.48 1.55 1.53 1.47 1.43 1.33 1.25 1.20
1.10 1.07 0.67 0.52 0.31 0.26 0.65 0.83 0.46 0.46 0.49 0.47 0.55 0.59 0.48 0.40 0.40 0.44 0.44 0.48 0.57 0.64 0.71 0.75 0.81 0.87 0.99 1.07 1.20 1.30 1.36 1.36 1.43 1.44 1.45 1.42 1.33 1.25 1.21 1.14 1.07 1.04 0.98 0.91
0.86 1.10 0.80 0.43 0.36 0.69 0.88 0.55 0.44 0.42 0.43 0.46 0.44 0.36 0.31 0.29 0.32 0.36 0.42 0.48 0.58 0.67 0.72 0.77 0.85 0.92 0.99 1.09 1.17 1.18 1.25 1.26 1.26 1.17 1.05 1.02 1.03 1.00 1.01 1.01 0.96 0.93 0.93 0.92
0.88 0.94 0.75 0.55 0.62 0.67 0.59 0.51 0.42 0.44 0.42 0.42 0.39 0.34 0.31 0.29 0.30 0.33 0.37 0.43 0.50 0.58 0.61 0.63 0.70 0.80 0.90 0.92 0.91 0.91 0.92 0.94 0.96 0.92 0.84 0.82 0.87 0.92 0.94 0.97 0.98 0.94 0.92 0.94
0.64 0.57 0.46 0.43 0.38 0.36 0.39 0.46 0.42 0.43 0.44 0.43 0.44 0.40 0.38 0.33 0.34 0.35 0.38 0.42 0.47 0.50 0.52 0.55 0.59 0.68 0.79 0.80 0.78 0.79 0.82 0.83 0.86 0.89 0.86 0.84 0.84 0.89 0.95 0.98 1.01 0.99 0.99 0.97
0.54 0.44 0.40 0.35 0.33 0.36 0.35 0.33 0.32 0.32 0.35 0.42 0.45 0.44 0.44 0.42 0.42 0.43 0.44 0.47 0.51 0.55 0.57 0.60 0.60 0.63 0.68 0.73 0.77 0.82 0.80 0.80 0.83 0.87 0.90 0.88 0.89 0.95 1.00 1.01 1.11 1.22 1.17 1.09
0.67 0.51 0.59 0.49 0.40 0.38 0.37 0.36 0.36 0.36 0.33 0.33 0.41 0.48 0.48 0.48 0.47 0.49 0.50 0.49 0.52 0.56 0.62 0.65 0.64 0.67 0.69 0.74 0.81 0.88 0.89 0.88 0.90 0.94 0.95 0.96 0.97 1.00 1.08 1.10 1.16 1.22 1.20 1.18
0.63 0.48 0.45 0.41 0.35 0.36 0.41 0.41 0.40 0.40 0.40 0.38 0.37 0.41 0.45 0.48 0.49 0.47 0.47 0.49 0.55 0.61 0.67 0.69 0.69 0.72 0.77 0.81 0.84 0.91 0.96 1.00 1.00 0.99 0.97 0.99 1.03 1.04 1.08 1.10 1.14 1.21 1.23 1.20
0.42 0.40 0.41 0.38 0.42 0.38 0.37 0.37 0.36 0.36 0.36 0.37 0.38 0.36 0.39 0.44 0.46 0.48 0.54 0.58 0.61 0.63 0.65 0.66 0.66 0.73 0.82 0.85 0.86 0.88 0.91 1.00 1.05 1.02 1.01 1.03 1.08 1.12 1.11 1.10 1.12 1.15 1.18 1.23
0.36 0.42 0.50 0.43 0.37 0.34 0.33 0.31 0.31 0.33 0.32 0.34 0.35 0.37 0.39 0.44 0.49 0.55 0.58 0.57 0.57 0.57 0.61 0.62 0.64 0.71 0.77 0.83 0.86 0.85 0.87 0.96 1.03 1.06 1.06 1.08 1.09 1.11 1.12 1.12 1.12 1.12 1.11 1.21
0.33 0.29 0.29 0.29 0.31 0.30 0.29 0.30 0.32 0.33 0.32 0.32 0.34 0.38 0.42 0.47 0.50 0.52 0.54 0.54 0.58 0.64 0.68 0.68 0.70 0.73 0.73 0.75 0.78 0.79 0.84 0.98 1.05 1.06 1.05 1.04 1.04 1.06 1.09 1.11 1.10 1.08 1.09 1.17
0.36 0.33 0.31 0.31 0.30 0.31 0.33 0.36 0.38 0.38 0.36 0.36 0.39 0.41 0.41 0.40 0.41 0.45 0.51 0.55 0.60 0.67 0.71 0.71 0.74 0.72 0.71 0.73 0.74 0.77 0.82 0.91 0.99 0.99 0.99 1.01 1.03 1.07 1.08 1.08 1.08 1.06 1.13 1.24
0.41 0.42 0.42 0.43 0.41 0.38 0.36 0.36 0.36 0.36 0.37 0.38 0.38 0.38 0.41 0.43 0.47 0.50 0.53 0.52 0.49 0.50 0.59 0.69 0.74 0.72 0.70 0.73 0.76 0.79 0.84 0.89 0.92 0.94 0.95 0.97 1.02 1.04 1.05 1.05 1.04 1.06 1.12 1.21
0.35 0.37 0.36 0.37 0.39 0.40 0.40 0.42 0.43 0.41 0.40 0.39 0.40 0.42 0.44 0.46 0.50 0.50 0.47 0.44 0.44 0.51 0.62 0.67 0.70 0.65 0.66 0.73 0.80 0.81 0.84 0.87 0.88 0.89 0.90 0.94 0.95 0.93 0.96 0.98 1.00 1.01 1.03 1.08
0.33 0.34 0.34 0.35 0.36 0.39 0.42 0.41 0.40 0.40 0.40 0.40 0.40 0.39 0.39 0.43 0.47 0.47 0.43 0.45 0.57 0.69 0.69 0.67 0.61 0.61 0.63 0.70 0.79 0.80 0.80 0.81 0.85 0.87 0.87 0.87 0.88 0.87 0.87 0.89 0.92 0.93 0.96 1.00
0.31 0.32 0.33 0.34 0.35 0.37 0.40 0.40 0.39 0.41 0.41 0.39 0.41 0.43 0.44 0.43 0.42 0.41 0.40 0.44 0.53 0.56 0.56 0.56 0.57 0.63 0.68 0.74 0.76 0.75 0.75 0.78 0.81 0.85 0.88 0.89 0.88 0.86 0.86 0.87 0.88 0.90 0.93 0.97
0.33 0.33 0.33 0.31 0.30 0.32 0.34 0.35 0.36 0.37 0.37 0.37 0.38 0.38 0.39 0.38 0.37 0.36 0.38 0.48 0.54 0.53 0.50 0.53 0.62 0.73 0.78 0.79 0.73 0.69 0.71 0.75 0.79 0.82 0.86 0.87 0.89 0.89 0.87 0.86 0.87 0.86 0.86 0.90
0.35 0.35 0.35 0.36 0.36 0.35 0.32 0.32 0.35 0.36 0.37 0.37 0.38 0.38 0.38 0.38 0.36 0.38 0.42 0.43 0.45 0.47 0.48 0.55 0.63 0.70 0.73 0.70 0.65 0.64 0.66 0.70 0.74 0.78 0.82 0.86 0.88 0.89 0.88 0.85 0.83 0.81 0.82 0.83
0.32 0.32 0.33 0.31 0.27 0.25 0.27 0.30 0.32 0.34 0.34 0.34 0.35 0.35 0.35 0.34 0.30 0.32 0.38 0.40 0.40 0.42 0.44 0.48 0.53 0.55 0.55 0.53 0.51 0.53 0.57 0.61 0.66 0.69 0.71 0.73 0.75 0.77 0.78 0.78 0.77 0.74 0.74 0.75
0.27 0.27 0.27 0.26 0.26 0.25 0.25 0.24 0.24 0.26 0.26 0.26 0.25 0.25 0.27 0.30 0.34 0.32 0.30 0.30 0.31 0.35 0.36 0.37 0.39 0.40 0.40 0.40 0.43 0.47 0.51 0.56 0.61 0.65 0.64 0.64 0.64 0.66 0.67 0.68 0.69 0.69 0.67 0.67
0.21 0.21 0.21 0.22 0.23 0.24 0.23 0.22 0.23 0.22 0.22 0.21 0.20 0.20 0.21 0.22 0.23 0.24 0.25 0.26 0.27 0.29 0.30 0.29 0.29 0.31 0.33 0.35 0.39 0.42 0.44 0.46 0.49 0.52 0.53 0.54 0.54 0.56 0.57 0.58 0.59 0.61 0.62 0.62
0.17 0.16 0.16 0.15 0.15 0.16 0.18 0.20 0.22 0.22 0.22 0.26 0.27 0.23 0.22 0.21 0.20 0.21 0.23 0.24 0.25 0.26 0.26 0.27 0.29 0.32 0.33 0.35 0.36 0.37 0.39 0.42 0.44 0.46 0.48 0.50 0.52 0.53 0.53 0.53 0.54 0.55 0.56 0.56